Location: Augustenthal
(51.7167°N, 10.2833°E)
Time: 08:59:46
(UTC+00:00)

ALOS 2 - Pass Details

Date: 22 September 2021
Orbit: 630 x 632 km, 97.9° (Epoch: 26 October)

Event Time Altitude Azimuth Distance (km) Brightness Sun altitude
Exits shadow 22:18:10 16° 356° (N) 1,663 5.3 -37.1°
Drops below altitude 10° 22:19:06 10° 353° (N) 2,027 5.9 -37.2°
Sets 22:21:20 0° 349° (N) 2,940 7.0 -37.3°
